Weather History for Lulea-Kallax, Sweden

Change the Weather History Date:

Tuesday, February 12, 2013

  Actual Average Record
Temperature  
Mean Temperature 10 °F -  
Max Temperature 15 °F - - ()
Min Temperature 5 °F - - ()
Degree Days  
Heating Degree Days 55    
Moisture  
Dew Point 8 °F    
Average Humidity 89    
Maximum Humidity 93    
Minimum Humidity 83    
Precipitation  
Precipitation 0.00 in - - ()
Sea Level Pressure  
Sea Level Pressure 30.43 in    
Wind  
Wind Speed 4 mph ()    
Max Wind Speed 8 mph    
Max Gust Speed -    
Visibility 6.6 miles    
Events Snow    
T = Trace of Precipitation, MM = Missing Value Source: Averaged Metar Reports

Daily Weather History Graph

Daily Weather History Graph

Search for Another Location

Airport:

Trip Planner

Search our weather history database for the weather conditions in past years. The results will help you decide how hot, cold, wet, or windy it might be!

Date:

Astronomy

Feb. 12, 2013 Rise Set
Actual Time 7:44 AM CET 3:47 PM CET
Civil Twilight 6:49 AM CET 4:43 PM CET
Nautical Twilight 5:49 AM CET 5:43 PM CET
Astronomical Twilight 4:51 AM CET 6:41 PM CET
Moon 7:17 AM CET (2/12) 7:57 PM CET (2/12)
Length of Visible Light 9h 54m
Length of Day
8h 03m
Waxing Crescent, 6% of the Moon is Illuminated
Feb 12
Waxing Crescent
Feb 17
First Quarter
Feb 25
Full
Mar 4
Last Quarter
Mar 11
New

Hourly Weather History & Observations

Time (CET) Temp. Windchill Dew Point Humidity Pressure Visibility Wind Dir Wind Speed Gust Speed Precip Events Conditions
12:00 AM 12 °F - 10 °F 89% 30.37 in 31 mi North 6.7 mph - -  
12:20 AM 12.2 °F 0.7 °F 10.4 °F 92% 30.36 in 6.2 mi NNW 8.1 mph - N/A   Partly Cloudy
12:50 AM 14.0 °F 3.9 °F 10.4 °F 86% 30.36 in 6.2 mi NNW 6.9 mph - N/A   Unknown
1:00 AM 12 °F - 10 °F 86% 30.38 in 31 mi North 6.7 mph - -  
1:20 AM 12.2 °F 2.9 °F 10.4 °F 92% 30.36 in 6.2 mi North 5.8 mph - N/A   Unknown
1:50 AM 10.4 °F 0.8 °F 8.6 °F 92% 30.36 in 6.2 mi NNW 5.8 mph - N/A   Unknown
2:00 AM 10 °F - 8 °F 86% 30.38 in 19 mi North 4.5 mph - -  
2:20 AM 10.4 °F 2.2 °F 6.8 °F 85% 30.36 in 6.2 mi NNW 4.6 mph - N/A   Unknown
2:50 AM 8.6 °F -1.3 °F 6.8 °F 92% 30.36 in 6.2 mi NNW 5.8 mph - N/A   Partly Cloudy
3:00 AM 9 °F - 7 °F 85% 30.39 in 31 mi NNW 4.5 mph - -  
3:20 AM 6.8 °F -3.5 °F 3.2 °F 85% 30.36 in 6.2 mi NNW 5.8 mph - N/A   Unknown
3:50 AM 5.0 °F -4.1 °F 1.4 °F 85% 30.36 in 6.2 mi NNW 4.6 mph - N/A   Unknown
4:20 AM 8.6 °F 0.1 °F 6.8 °F 92% 30.39 in 6.2 mi NNW 4.6 mph - N/A   Unknown
4:50 AM 5.0 °F -2.1 °F 1.4 °F 85% 30.39 in - NNW 3.5 mph - N/A   Clear
5:00 AM 6 °F - 4 °F 88% 30.40 in 31 mi NNW 2.2 mph - -  
5:20 AM 6.8 °F -2.0 °F 3.2 °F 85% 30.39 in - NNW 4.6 mph - N/A   Clear
5:50 AM 10.4 °F 4.0 °F 8.6 °F 92% 30.39 in - NW 3.5 mph - N/A   Clear
6:00 AM 11 °F - 9 °F 85% 30.41 in 22 mi NW 2.2 mph - -   Clear
6:20 AM 10.4 °F - 8.6 °F 92% 30.39 in - NNW 2.3 mph - N/A   Clear
6:50 AM 8.6 °F - 5.0 °F 85% 30.39 in - Variable 2.3 mph - N/A   Clear
7:00 AM 9 °F - 7 °F 85% 30.41 in 22 mi North 2.2 mph - -  
7:20 AM 8.6 °F - 6.8 °F 92% 30.39 in - North 2.3 mph - N/A   Clear
7:50 AM 6.8 °F - 5.0 °F 92% 30.39 in 6.2 mi North 2.3 mph - N/A   Mostly Cloudy
8:00 AM 8 °F - 6 °F 85% 30.42 in 25 mi North 2.2 mph - -   Mostly Cloudy
8:20 AM 6.8 °F - 5.0 °F 92% 30.42 in 6.2 mi North 2.3 mph - N/A   Mostly Cloudy
8:50 AM 5.0 °F -2.1 °F 3.2 °F 92% 30.42 in 6.2 mi NNW 3.5 mph - N/A   Mostly Cloudy
9:00 AM 7 °F - 5 °F 85% 30.43 in 6 mi NNW 4.5 mph - -   Mostly Cloudy
9:20 AM 8.6 °F 2.0 °F 6.8 °F 92% 30.42 in 6.2 mi North 3.5 mph - N/A   Mostly Cloudy
9:50 AM 12.2 °F 4.3 °F 10.4 °F 92% 30.42 in 6.2 mi NNW 4.6 mph - N/A   Mostly Cloudy
10:20 AM 14.0 °F 5.1 °F 12.2 °F 93% 30.42 in 6.2 mi North 5.8 mph - N/A   Mostly Cloudy
10:50 AM 14.0 °F 8.2 °F 12.2 °F 93% 30.42 in 6.2 mi North 3.5 mph - N/A   Mostly Cloudy
11:00 AM 15 °F - 13 °F 87% 30.45 in 5 mi North 2.2 mph - -   Mostly Cloudy
11:20 AM 14.0 °F 8.2 °F 12.2 °F 93% 30.45 in 6.2 mi North 3.5 mph - N/A   Mostly Cloudy
11:50 AM 14.0 °F - 12.2 °F 93% 30.45 in 6.2 mi North 2.3 mph - N/A   Mostly Cloudy
12:00 PM 14 °F - 13 °F 91% 30.46 in 7 mi NNW 2.2 mph - -   Partly Cloudy
12:20 PM 12.2 °F 6.1 °F 10.4 °F 92% 30.45 in 6.2 mi NNW 3.5 mph - N/A   Mostly Cloudy
12:50 PM 12.2 °F 4.3 °F 10.4 °F 92% 30.45 in - NNW 4.6 mph - N/A   Clear
1:00 PM 13 °F - 11 °F 88% 30.45 in 12 mi NNW 4.5 mph - -  
1:20 PM 14.0 °F 8.2 °F 12.2 °F 93% 30.45 in - NNW 3.5 mph - N/A   Clear
1:50 PM 12.2 °F 6.1 °F 10.4 °F 92% 30.45 in - North 3.5 mph - N/A   Clear
2:00 PM 12 °F - 10 °F 90% 30.45 in 31 mi NNW 4.5 mph - -   Clear
2:20 PM 10.4 °F 4.0 °F 8.6 °F 92% 30.45 in - North 3.5 mph - N/A   Clear
2:50 PM 12.2 °F - 10.4 °F 92% 30.45 in 6.2 mi Variable 1.2 mph - N/A   Partly Cloudy
3:00 PM 12 °F - 10 °F 89% 30.46 in 37 mi North 2.2 mph - -   Partly Cloudy
3:20 PM 12.2 °F 4.3 °F 10.4 °F 92% 30.45 in 6.2 mi NNW 4.6 mph - N/A   Scattered Clouds
3:50 PM 8.6 °F 0.1 °F 6.8 °F 92% 30.45 in 6.2 mi NNW 4.6 mph - N/A   Mostly Cloudy
4:20 PM 8.6 °F - 6.8 °F 92% 30.45 in 6.2 mi NNW 2.3 mph - N/A   Mostly Cloudy
4:50 PM 8.6 °F 0.1 °F 6.8 °F 92% 30.45 in 6.2 mi North 4.6 mph - N/A   Partly Cloudy
5:00 PM 8 °F - 5 °F 83% 30.46 in 44 mi North 4.5 mph - -   Scattered Clouds
5:20 PM 6.8 °F -2.0 °F 3.2 °F 85% 30.45 in 6.2 mi North 4.6 mph - N/A   Scattered Clouds
5:50 PM 6.8 °F -0.1 °F 5.0 °F 92% 30.45 in 6.2 mi North 3.5 mph - N/A   Mostly Cloudy
6:00 PM 8 °F - 6 °F 86% 30.47 in 44 mi North 4.5 mph - -   Mostly Cloudy
6:20 PM 8.6 °F -2.6 °F 5.0 °F 85% 30.45 in 6.2 mi North 6.9 mph - N/A   Mostly Cloudy
6:50 PM 10.4 °F 2.2 °F 6.8 °F 85% 30.45 in 6.2 mi North 4.6 mph - N/A   Mostly Cloudy
7:00 PM 10 °F - 8 °F 88% 30.48 in 37 mi North 4.5 mph - -  
7:20 PM 10.4 °F 0.8 °F 6.8 °F 85% 30.45 in 6.2 mi North 5.8 mph - N/A Snow Light Snow
7:50 PM 10.4 °F -0.4 °F 8.6 °F 92% 30.45 in 6.2 mi North 6.9 mph - N/A   Mostly Cloudy
8:00 PM 11 °F - 9 °F 88% 30.47 in 31 mi North 6.7 mph - -   Mostly Cloudy
8:20 PM 12.2 °F 2.9 °F 10.4 °F 92% 30.45 in 6.2 mi North 5.8 mph - N/A   Mostly Cloudy
8:50 PM 12.2 °F 1.7 °F 10.4 °F 92% 30.45 in 6.2 mi North 6.9 mph - N/A   Mostly Cloudy
9:00 PM 11 °F - 10 °F 90% 30.48 in 37 mi North 6.7 mph - - Snow Snow
9:20 PM 12.2 °F 4.3 °F 8.6 °F 85% 30.45 in 6.2 mi North 4.6 mph - N/A   Mostly Cloudy
9:50 PM 12.2 °F 2.9 °F 10.4 °F 92% 30.45 in 6.2 mi North 5.8 mph - N/A   Mostly Cloudy
10:20 PM 12.2 °F 2.9 °F 10.4 °F 92% 30.48 in 6.2 mi North 5.8 mph - N/A   Mostly Cloudy
10:50 PM 12.2 °F 2.9 °F 10.4 °F 92% 30.48 in 6.2 mi NNW 5.8 mph - N/A   Mostly Cloudy
11:00 PM 12 °F - 10 °F 86% 30.49 in 28 mi North 4.5 mph - -   Overcast
11:20 PM 12.2 °F 1.7 °F 10.4 °F 92% 30.48 in 6.2 mi NNW 6.9 mph - N/A   Mostly Cloudy
11:50 PM 12.2 °F 2.9 °F 10.4 °F 92% 30.48 in 6.2 mi NNW 5.8 mph - N/A   Overcast